Tracking 20242 objects as of 24-Jan-2020
HD Live streaming from Space Station
objects crossing your sky now

CZ-2D DEB

Track CZ-2D DEB now!
10-day predictions


NORAD ID: 43504
Int'l Code: 2017-084E
Perigee: 497.2 km
Apogee: 521.3 km
Inclination: 97.5 °
Period: 94.7 minutes
Semi major axis: 6880 km
RCS: Unknown
Launch date: December 23, 2017
Source: People's Republic of China (PRC)
Launch site: Jiuquan Satellite Launch Center, China (JSC)

Note: This is SATELLITE DEBRIS
aabbcc
Your satellite tracking list
Your tracking list is empty




NASA's NSSDC Master Catalog

Two Line Element Set (TLE):
1 43504U 17084E   20024.19668492  .00001115  00000-0  52984-4 0  9999
2 43504  97.5340 113.6583 0017503   2.1274 358.0032 15.21235328115229
Source of the keplerian elements: AFSPC